RH
13 14 14 14 15 15 16 16 15 13 12 11 10 8 7 6 5 5 5 5 6 6 5 5 5 5 5 5 5 5 6 6 7 7 7 7 9 11 12 13 16 16 15 22 26 26 30 32 32 34 42 52 56 67 77 78 76 74 73 72 71 70 68 69 71 75 78 79 81 83 84 84 83 82 81 79 78 76 74 74 72 67 64 64 65 65 62 58
11 11 12 12 13 13 14 15 16 15 14 13 11 10 9 7 6 6 5 5 6 6 6 6 5 5 5 4 4 4 5 6 7 6 6 7 8 8 9 11 15 16 15 20 24 23 26 31 31 32 40 50 53 60 71 76 75 72 71 71 70 68 67 68 71 75 78 81 81 82 83 82 81 81 81 78 75 74 72 72 70 64 63 63 62 63 63 58
11 11 11 11 11 12 12 13 14 15 15 15 14 12 11 9 8 7 6 6 6 6 6 6 5 5 5 5 4 4 5 5 5 6 7 8 8 7 8 10 12 15 14 17 21 21 22 25 25 28 37 44 48 54 65 72 73 71 71 70 69 66 66 67 71 75 78 82 82 82 83 81 80 79 79 77 75 73 70 70 67 62 61 62 60 61 62 58
11 10 11 11 11 11 11 11 12 13 14 15 14 14 13 11 9 8 7 6 6 7 6 6 5 5 5 5 5 4 4 5 6 7 9 10 9 8 8 9 11 13 13 15 20 22 20 21 22 25 32 37 42 49 58 66 68 70 71 69 67 65 64 64 67 72 79 83 83 85 85 82 80 78 76 74 72 71 68 68 67 63 62 60 59 59 60 58
10 10 10 10 11 11 11 11 11 11 12 13 14 14 14 13 12 9 8 7 7 7 7 7 6 5 5 5 5 5 5 6 8 9 9 9 9 8 8 8 10 11 11 13 19 23 21 21 22 27 32 35 40 44 49 60 65 67 69 68 66 63 61 60 63 69 76 82 84 86 88 85 80 76 75 71 70 69 67 68 68 65 64 62 60 58 58 58
10 9 10 10 10 10 11 11 12 12 11 11 12 13 14 14 13 12 9 8 8 8 8 7 6 6 5 5 5 5 5 7 9 10 8 7 7 8 8 9 12 11 9 11 17 20 20 20 24 29 33 36 41 41 43 53 62 65 64 63 63 61 56 57 61 65 69 77 83 83 85 84 77 76 76 72 72 71 68 69 67 66 65 64 61 58 58 57
10 10 10 10 10 10 10 10 11 11 12 12 12 12 12 13 14 14 12 10 9 9 9 8 7 6 6 6 5 5 5 6 9 11 8 5 5 7 8 10 13 12 10 11 14 15 16 19 25 30 32 37 39 40 43 49 57 62 62 61 60 57 54 54 56 60 64 72 82 82 82 81 74 76 77 73 74 73 69 69 68 67 67 66 63 60 58 57
12 12 11 11 11 11 11 11 11 10 11 11 12 12 11 11 13 14 14 11 10 10 10 9 8 7 6 7 7 6 5 5 8 11 10 6 5 6 9 13 15 14 12 12 11 12 15 17 24 27 29 35 38 39 44 49 55 59 61 61 58 55 52 51 52 56 60 68 79 83 81 79 75 77 76 72 74 73 70 69 68 69 69 67 64 61 58 57
14 14 14 13 12 12 12 13 12 11 10 10 11 12 12 11 11 13 14 13 11 11 11 10 8 8 7 8 8 7 5 5 8 11 12 9 6 6 10 15 16 15 15 13 11 10 12 15 19 23 26 33 37 38 42 48 55 57 58 58 56 52 49 47 47 53 60 67 78 81 80 78 76 77 75 74 75 73 70 69 70 69 68 68 65 62 59 57
15 15 14 14 13 13 13 12 13 12 10 8 9 10 12 12 11 12 14 14 12 12 12 10 9 9 9 9 9 7 7 8 9 10 13 11 7 8 11 14 17 17 16 14 11 9 10 12 15 20 24 30 35 38 39 45 52 54 54 54 51 48 47 43 44 53 63 71 77 78 79 77 77 77 74 76 75 73 71 71 73 71 68 67 65 63 59 56
15 14 14 14 13 13 12 12 12 12 10 7 7 8 9 11 12 12 12 13 13 13 14 12 10 10 10 11 10 9 10 10 9 10 13 13 10 8 10 13 16 19 18 16 13 11 9 9 12 17 21 26 31 36 37 39 45 50 50 49 46 46 49 47 45 54 62 70 75 76 78 78 78 76 73 76 76 73 73 73 75 72 68 65 64 63 59 56
14 14 14 13 13 12 11 12 11 11 9 7 7 7 7 9 11 13 13 12 12 14 15 13 11 11 12 12 10 11 12 11 10 10 12 15 13 10 10 11 14 18 19 18 15 12 11 9 12 17 19 22 29 36 37 35 40 46 46 46 46 44 48 49 48 53 59 66 72 72 75 77 77 76 74 77 76 74 73 74 75 71 67 64 62 61 59 56
14 13 13 13 13 12 11 11 11 10 7 6 6 6 6 7 9 12 13 12 11 13 16 15 13 12 14 13 10 11 14 13 11 12 13 16 16 14 11 10 12 16 19 19 16 13 12 12 13 16 16 19 26 35 36 34 38 44 44 44 45 41 44 49 49 53 58 65 70 69 70 72 74 75 75 78 77 74 73 73 73 69 65 63 62 60 58 57
13 13 13 13 12 12 11 10 10 8 5 6 7 7 7 6 7 10 12 12 12 14 15 15 14 14 15 14 11 13 14 14 13 12 15 17 17 16 14 12 12 15 19 20 17 14 12 15 15 14 15 18 24 31 35 36 37 42 43 41 42 40 42 48 50 52 57 65 69 68 68 70 72 74 76 78 77 75 72 70 70 67 64 63 62 61 59 58
12 12 12 12 11 11 11 10 9 6 6 8 8 8 8 7 6 8 12 13 13 14 14 15 15 15 17 14 13 14 13 14 16 14 15 16 17 17 16 15 13 14 18 20 19 15 13 16 16 13 14 17 22 28 35 38 37 40 43 42 40 39 42 48 49 50 56 64 66 66 67 67 69 72 76 77 74 73 71 70 69 66 65 64 63 62 61 60
12 12 12 12 12 11 11 12 9 6 8 9 9 9 9 8 7 9 11 14 15 14 14 15 15 16 18 16 14 15 14 16 19 18 16 15 15 16 17 17 16 15 17 20 20 16 14 15 15 13 13 17 21 26 33 38 38 39 41 42 39 37 41 45 48 48 54 63 64 65 67 65 65 71 74 74 72 71 71 72 72 69 67 66 65 63 63 61
12 12 12 12 12 12 13 13 10 8 9 9 10 10 9 10 10 9 11 13 15 15 14 15 16 17 17 17 16 15 15 18 20 20 18 15 14 15 16 17 18 17 18 20 20 17 15 15 15 14 13 17 21 26 33 37 37 36 38 39 37 38 41 42 47 48 50 60 63 65 67 64 64 67 70 73 74 73 71 71 73 72 69 68 67 65 63 62
11 11 12 12 12 13 14 14 11 10 11 9 10 11 10 10 10 10 11 12 14 15 15 15 17 17 15 16 17 16 16 18 19 19 18 15 14 15 15 17 19 19 17 19 20 17 15 15 15 16 17 21 24 26 31 33 34 34 36 37 35 37 40 39 43 48 49 55 61 66 66 63 64 64 68 73 75 74 73 73 73 72 71 69 68 67 65 63
10 11 11 12 13 14 16 15 12 12 12 10 11 10 10 11 11 12 11 12 14 15 16 17 15 15 16 17 17 18 17 17 18 17 17 15 15 17 17 17 20 19 17 19 21 18 15 16 18 20 21 23 24 26 28 28 30 33 33 34 33 34 37 35 36 42 48 53 58 61 58 56 61 63 66 70 72 73 73 74 74 73 73 71 69 67 67 65
10 10 11 13 14 16 17 15 13 14 12 10 11 10 11 11 11 13 12 11 13 14 16 17 15 15 19 20 19 19 17 17 18 18 17 16 15 18 19 20 21 21 18 18 20 18 15 16 18 19 20 22 23 26 27 25 26 30 32 32 31 32 34 34 32 34 43 49 50 51 48 47 53 57 60 65 68 69 69 72 74 73 72 72 71 68 67 67
10 11 13 15 16 17 17 15 13 14 12 10 11 11 13 13 12 14 13 11 12 13 16 17 15 16 20 21 21 20 18 18 19 19 19 19 18 20 23 23 21 21 20 19 21 20 17 17 17 18 20 22 25 27 27 25 24 26 30 30 31 32 33 33 31 30 38 43 42 43 44 43 44 47 52 57 62 62 63 66 69 71 72 72 73 70 68 69
11 13 15 16 17 16 16 15 13 13 12 11 11 12 15 16 15 14 13 14 14 14 16 16 15 17 20 22 21 19 20 20 19 19 20 22 21 20 23 23 20 21 21 20 21 20 18 16 16 19 21 24 28 28 27 26 24 25 28 29 30 31 32 33 30 29 37 41 39 39 40 38 39 41 46 51 55 56 57 59 62 67 71 73 74 72 69 69
14 15 16 16 15 16 17 15 13 13 12 12 13 15 18 17 16 15 14 15 16 16 18 17 17 21 22 22 21 20 21 21 21 21 21 22 23 20 20 24 23 22 22 22 21 20 18 16 18 21 23 27 32 30 27 26 25 25 26 28 29 30 31 33 31 30 37 40 36 36 35 32 34 38 42 47 49 51 53 54 57 61 66 69 74 74 70 67
15 16 15 15 15 16 17 14 12 12 11 13 16 18 19 18 17 17 15 16 18 19 19 18 20 24 23 21 22 22 22 22 23 24 23 23 24 20 19 23 26 26 24 23 22 20 19 17 19 22 26 31 33 31 28 27 26 25 25 25 27 29 31 32 30 30 34 37 36 35 33 31 34 36 38 40 43 47 49 51 53 57 60 64 70 73 71 68
16 16 16 16 16 18 17 13 11 11 12 15 17 18 19 19 19 18 18 20 22 22 20 19 22 24 22 21 24 25 25 25 25 26 25 25 24 21 20 23 25 27 26 24 23 22 22 22 22 24 29 33 34 32 30 29 27 26 25 24 24 26 29 31 30 30 33 36 37 36 34 34 37 40 39 38 41 43 47 50 51 54 58 61 65 69 71 71
17 19 21 22 21 21 19 14 10 11 13 16 17 16 19 19 20 21 23 24 24 24 23 22 26 28 24 24 26 27 27 28 28 28 27 26 24 22 22 23 23 26 27 25 25 24 24 26 26 27 31 34 34 34 32 30 29 27 25 23 23 24 25 28 29 30 33 35 38 37 36 35 37 41 43 42 43 44 45 48 49 51 56 59 61 65 70 71
22 24 26 27 26 24 20 14 11 12 13 17 17 17 19 20 21 24 27 28 27 26 26 26 29 31 27 26 27 28 29 30 29 29 28 27 25 24 22 22 22 25 26 25 25 24 23 26 28 29 32 34 35 33 32 31 30 28 24 22 23 23 23 25 27 30 32 33 35 36 37 37 40 44 45 45 47 51 54 54 53 54 58 59 58 61 66 71
25 27 28 28 28 26 20 15 14 13 13 15 15 17 21 22 24 27 31 33 30 29 31 31 32 32 28 27 29 30 31 30 30 30 28 27 26 25 23 23 23 23 25 25 25 24 22 24 27 28 30 32 31 30 30 31 31 27 23 22 23 22 22 24 25 27 30 32 34 36 36 38 44 47 44 47 55 60 62 60 57 57 59 61 60 59 64 71
27 28 28 28 28 27 21 16 15 14 13 15 17 20 23 24 28 32 35 34 30 29 32 32 33 34 30 28 29 31 31 31 31 30 29 27 26 25 25 25 24 25 25 24 24 23 20 21 24 27 28 27 26 26 28 30 30 27 24 24 23 22 23 23 23 24 27 31 33 35 35 35 44 50 45 47 55 58 59 58 57 57 58 60 61 61 64 71
28 28 28 27 29 28 22 17 16 15 16 19 22 24 26 29 33 35 35 34 31 29 30 31 32 33 31 29 29 30 31 31 32 31 30 29 27 26 27 27 25 25 25 24 24 23 20 19 21 23 26 25 23 23 25 28 29 27 26 25 24 24 23 22 23 23 25 30 30 32 34 32 42 56 54 51 53 52 52 53 54 55 55 56 56 58 61 67
29 29 28 27 29 27 22 18 16 17 20 22 24 25 29 33 35 36 35 33 32 30 28 29 29 30 30 30 30 30 30 32 33 32 32 30 28 28 28 29 27 24 22 24 25 22 20 20 18 19 22 22 21 21 22 25 27 28 27 26 27 27 25 24 24 23 25 27 27 30 33 34 47 62 59 51 50 49 47 48 51 53 53 53 52 54 57 62
30 30 29 27 29 27 23 18 17 21 23 23 26 29 32 34 34 37 37 34 33 31 29 29 27 28 29 29 30 31 31 33 34 33 33 31 30 30 30 31 30 26 23 24 24 22 19 19 17 18 20 20 19 20 22 24 25 27 27 26 28 28 27 26 25 25 24 23 25 29 32 40 56 64 58 52 50 48 47 47 50 52 53 53 52 52 55 59
30 31 30 29 31 31 26 21 20 23 23 26 32 33 33 35 37 39 39 38 36 32 30 29 27 26 26 27 30 31 32 33 34 33 33 31 31 31 31 32 31 29 27 23 23 22 20 19 18 18 18 18 18 18 20 23 23 25 26 26 27 27 28 28 26 26 24 21 25 27 30 45 58 57 55 54 51 49 49 49 50 50 52 55 53 52 53 56
30 31 32 32 33 34 31 26 23 25 26 29 32 31 35 42 44 41 40 40 38 33 30 29 28 27 26 27 30 30 32 34 34 34 33 32 32 32 32 32 33 32 30 26 25 25 22 21 20 18 18 17 16 16 18 20 21 22 23 25 26 24 24 26 24 24 23 21 23 23 28 45 56 55 54 54 51 49 51 52 51 49 51 54 54 52 52 53
29 30 32 34 34 34 34 30 26 27 29 30 29 31 41 50 47 43 43 43 40 36 33 31 30 29 27 28 29 28 29 32 33 33 32 32 33 33 33 32 33 33 33 31 29 27 25 23 20 18 19 17 15 16 17 19 21 21 21 23 25 24 22 24 23 22 21 20 22 26 35 45 49 50 51 52 50 48 50 53 53 49 49 52 53 51 51 52
28 29 31 34 35 35 35 33 29 28 30 31 31 36 47 52 47 44 45 45 43 40 38 34 32 30 29 29 29 27 27 29 31 31 32 33 33 33 32 31 31 33 34 33 31 29 27 25 21 20 20 18 18 19 18 19 21 21 21 23 23 23 24 25 24 23 21 21 25 33 43 46 44 44 47 49 48 46 48 51 51 50 49 50 52 50 49 50
28 28 29 32 34 34 33 33 32 30 30 32 33 39 47 51 48 46 46 46 45 42 41 37 33 31 30 30 30 29 27 28 30 30 32 34 33 33 32 30 29 30 33 34 33 31 29 25 24 24 23 21 21 22 22 20 21 22 22 22 22 24 26 25 27 27 23 23 32 39 40 41 43 45 46 47 46 45 47 47 47 50 49 49 51 49 48 48
26 26 26 27 31 34 32 31 31 31 32 35 36 37 42 47 48 48 49 49 47 44 43 41 37 34 31 30 31 30 29 30 31 31 32 34 34 35 34 31 28 28 31 33 33 32 30 26 25 25 25 23 22 24 24 22 21 22 23 22 23 27 28 26 28 29 24 27 38 42 39 38 44 50 52 52 49 46 47 46 46 49 49 49 51 49 47 48
24 25 24 23 26 29 30 31 31 30 32 40 42 36 36 40 43 48 52 51 49 49 47 44 42 40 37 34 34 32 30 31 33 33 34 36 36 37 37 34 31 29 31 33 33 34 32 29 26 25 26 25 23 24 26 25 23 22 23 23 24 26 27 27 26 25 26 32 39 41 38 39 48 57 59 56 53 49 47 45 44 44 44 45 50 51 48 47
21 23 23 22 23 24 25 27 30 31 33 40 44 42 39 36 36 44 50 50 50 50 50 49 47 46 44 41 39 38 34 34 35 34 35 36 37 37 37 37 34 33 32 33 33 34 33 31 29 27 26 26 26 26 26 26 25 23 24 24 24 25 26 26 27 26 28 33 37 38 38 40 50 59 59 55 54 52 49 45 44 42 40 40 45 48 48 47
19 22 22 21 22 21 20 23 27 31 33 36 40 43 45 41 37 39 43 45 49 49 48 50 50 49 49 47 45 43 40 39 38 36 36 36 37 37 37 37 37 34 32 31 32 33 33 32 30 29 29 29 29 29 27 26 26 24 24 25 24 24 25 26 27 28 29 32 35 35 36 42 52 58 56 52 51 54 52 48 45 43 40 38 39 42 44 45
18 22 21 20 21 21 19 19 24 27 30 33 34 37 42 44 42 42 41 41 45 46 45 48 50 50 50 50 49 47 45 44 42 40 40 39 37 37 37 37 38 36 32 30 30 33 34 35 33 32 33 33 31 30 29 28 27 25 25 26 25 24 25 26 27 29 29 31 34 34 36 47 57 56 53 51 50 53 54 51 48 45 43 41 40 41 42 44
17 20 19 18 20 21 19 19 21 23 24 27 30 32 36 40 40 41 44 44 44 45 44 46 49 51 51 51 50 49 48 47 46 43 42 40 38 36 37 37 38 37 34 31 30 31 33 35 37 37 35 34 33 32 31 30 29 27 26 26 26 26 25 25 27 29 30 31 33 33 36 47 57 56 51 50 51 53 53 52 51 48 46 44 44 43 43 44
17 18 18 18 18 19 20 19 19 21 21 24 26 27 31 35 37 37 40 42 43 45 46 47 48 50 51 51 49 48 48 48 48 46 43 42 39 37 37 37 38 38 36 35 33 30 31 35 39 39 37 35 34 33 32 31 30 30 29 28 28 28 27 26 28 29 30 32 33 32 35 44 52 54 50 48 49 52 52 52 52 51 49 48 46 45 45 44
17 17 18 17 16 17 19 19 19 19 21 23 24 23 25 28 31 33 35 36 36 38 42 45 47 48 48 49 48 47 46 46 47 47 45 42 40 39 38 36 37 38 37 38 36 31 32 35 36 37 36 35 35 35 34 34 32 32 31 30 30 30 29 29 30 30 31 34 34 33 37 46 53 52 49 46 46 49 50 50 50 50 50 50 49 48 49 48
18 19 20 19 17 18 19 20 20 20 21 23 23 21 21 23 26 28 30 32 32 32 34 38 42 44 44 45 47 47 47 46 46 47 46 43 41 41 40 37 37 37 37 37 35 33 34 34 34 34 34 34 37 38 37 36 34 33 33 31 31 31 31 31 32 32 32 33 34 35 39 47 52 50 46 45 45 47 49 49 49 50 49 51 52 52 53 53
19 22 23 22 20 20 20 21 22 22 22 23 22 21 20 22 24 25 25 27 30 31 31 33 37 40 41 43 44 45 46 47 47 47 47 45 43 42 40 39 37 37 36 35 34 34 33 32 32 32 31 31 33 36 37 36 36 35 34 32 30 31 31 31 33 34 34 34 35 35 39 45 48 45 43 43 43 45 47 48 49 50 49 50 52 53 53 54
20 22 24 23 22 21 22 21 23 24 23 24 23 22 21 21 23 24 23 24 26 28 29 32 34 36 39 41 42 43 45 45 44 47 47 45 44 42 39 38 37 36 35 33 33 34 33 31 31 30 28 28 28 31 33 34 34 35 34 33 31 30 30 31 33 34 34 36 35 34 37 42 43 42 41 42 42 43 45 45 47 50 49 48 50 50 51 53
20 21 22 22 21 23 23 23 24 24 24 26 25 23 22 21 22 22 22 23 25 26 27 30 32 33 36 38 38 40 43 42 42 43 43 41 41 40 37 36 36 36 34 32 33 34 32 31 31 29 28 28 27 28 28 30 32 33 34 34 32 31 31 31 33 33 34 35 34 34 39 42 41 41 42 43 44 45 44 43 46 51 51 48 47 47 48 52
20 21 21 20 22 24 24 23 25 25 25 27 27 26 25 23 22 22 22 23 25 25 25 28 29 30 32 33 33 34 35 36 36 36 36 35 34 33 33 33 33 34 33 33 32 32 32 33 32 29 28 28 28 28 27 28 30 32 34 35 34 34 35 34 35 35 35 35 34 36 42 45 45 44 45 46 46 46 45 46 49 52 51 48 47 46 47 50
20 20 20 21 24 27 26 25 28 28 26 27 28 28 28 26 25 25 24 25 27 26 26 29 29 29 28 29 29 28 29 30 29 28 28 27 26 26 28 29 29 30 31 32 32 31 30 32 32 29 28 30 30 29 29 30 30 33 37 38 37 38 40 42 44 45 42 40 38 38 41 44 46 46 45 46 47 46 46 47 51 55 52 48 46 46 46 47
20 20 21 22 24 28 28 27 29 29 27 28 30 30 30 29 29 29 27 27 29 28 27 29 30 29 29 28 27 26 26 26 25 24 25 25 26 28 29 29 28 28 28 28 30 30 29 29 31 28 29 32 30 30 32 30 28 33 37 36 35 37 41 46 51 53 52 50 47 45 44 44 45 45 45 46 47 48 48 49 52 55 54 50 46 45 45 45